This is the latest recevied weather packets stored in our database for station/object EB5AGF-13. If no packets are shown the sender has not sent any weather packets the latest 10 day(s).
| Time | Temp. | Humidity | Pressure | Rain* | Wind** | Luminosity | Snow |
|---|---|---|---|---|---|---|---|
| 1777564190 | 21.67° C | 72% | 1012.3 hPa | 0 mm | 2.68 m/s, 215° | 278 W/m² | - |
| 1777563885 | 21.11° C | 73% | 1012.1 hPa | 0 mm | 0.89 m/s, 175° | 293 W/m² | - |
| 1777563574 | 21.67° C | 73% | 1012.2 hPa | 0 mm | 4.02 m/s, 205° | 303 W/m² | - |
| 1777563272 | 21.67° C | 72% | 1012 hPa | 0 mm | 3.13 m/s, 246° | 292 W/m² | - |
| 1777562972 | 21.67° C | 73% | 1012.2 hPa | 0 mm | 1.79 m/s, 256° | 325 W/m² | - |
| 1777562669 | 21.67° C | 73% | 1012.4 hPa | 0 mm | 1.79 m/s, 222° | 322 W/m² | - |
| 1777562366 | 21.11° C | 72% | 1012.1 hPa | 0 mm | 2.68 m/s, 270° | 341 W/m² | - |
| 1777562061 | 21.67° C | 70% | 1012 hPa | 0 mm | 4.47 m/s, 162° | 354 W/m² | - |
| 1777561757 | 21.67° C | 71% | 1012.1 hPa | 0 mm | 4.02 m/s, 154° | 365 W/m² | - |
| 1777561453 | 21.67° C | 71% | 1012.2 hPa | 0 mm | 2.68 m/s, 214° | 376 W/m² | - |
| 1777561151 | 21.67° C | 71% | 1012.3 hPa | 0 mm | 0.89 m/s, 224° | 384 W/m² | - |
| 1777560845 | 21.11° C | 73% | 1012.1 hPa | 0 mm | 3.58 m/s, 215° | 319 W/m² | - |
| 1777560541 | 21.11° C | 72% | 1012.2 hPa | 0 mm | 3.58 m/s, 187° | 105 W/m² | - |
| 1777560237 | 21.11° C | 74% | 1012.2 hPa | 0 mm | 3.58 m/s, 190° | 97 W/m² | - |
| 1777559933 | 21.67° C | 72% | 1012.4 hPa | 0 mm | 4.02 m/s, 208° | 97 W/m² | - |
| 1777559630 | 21.11° C | 73% | 1012.4 hPa | 0 mm | 3.13 m/s, 212° | 97 W/m² | - |
| 1777559325 | 21.67° C | 71% | 1012.5 hPa | 0 mm | 3.13 m/s, 181° | 96 W/m² | - |
| 1777559021 | 21.11° C | 74% | 1012.6 hPa | 0 mm | 2.24 m/s, 204° | 97 W/m² | - |
| 1777558717 | 21.67° C | 73% | 1012.6 hPa | 0 mm | 1.79 m/s, 290° | 101 W/m² | - |
| 1777558413 | 21.67° C | 73% | 1012.8 hPa | 0 mm | 1.79 m/s, 188° | 235 W/m² | - |
| 1777558112 | 21.67° C | 72% | 1012.7 hPa | 0 mm | 2.68 m/s, 70° | 454 W/m² | - |
| 1777557812 | 21.67° C | 69% | 1012.6 hPa | 0 mm | 4.02 m/s, 174° | 523 W/m² | - |
| 1777557513 | 21.67° C | 70% | 1012.8 hPa | 0 mm | 1.79 m/s, 217° | 535 W/m² | - |
| 1777557213 | 21.67° C | 70% | 1012.8 hPa | 0 mm | 2.24 m/s, 164° | 502 W/m² | - |
| 1777556913 | 21.11° C | 74% | 1012.4 hPa | 0 mm | 3.13 m/s, 170° | 430 W/m² | - |
* Rain latest hour (hover to see other rain measurements)
** Current wind speed in m/s (hover to see current wind gust speed)